Weather History for Port Isabel, TX

Change the Weather History Date:

Friday, November 25, 2011

  Actual Average Record
Temperature  
Mean Temperature 73 °F -  
Max Temperature 82 °F - - ()
Min Temperature 64 °F - - ()
Cooling Degree Days 8    
Growing Degree Days 23 (Base 50)    
Moisture  
Dew Point 65 °F    
Average Humidity 74    
Maximum Humidity 87    
Minimum Humidity 56    
Precipitation  
Precipitation 0.00 in - - ()
Sea Level Pressure  
Sea Level Pressure 29.97 in    
Wind  
Wind Speed 11 mph (SE)    
Max Wind Speed 22 mph    
Max Gust Speed 29 mph    
Visibility 10 miles    
Events      
T = Trace of Precipitation, MM = Missing Value Source: NWS Daily Summary

Daily Weather History Graph

Daily Weather History Graph

Search for Another Location

Airport:

Trip Planner

Search our weather history database for the weather conditions in past years. The results will help you decide how hot, cold, wet, or windy it might be!

Date:

Astronomy

Nov. 25, 2011 Rise Set
Actual Time 6:55 AM CST 5:37 PM CST
Civil Twilight 6:30 AM CST 6:02 PM CST
Nautical Twilight 6:02 AM CST 6:30 PM CST
Astronomical Twilight 5:34 AM CST 6:58 PM CST
Moon 7:19 AM CST (11/25) 6:11 PM CST (11/25)
Length of Visible Light 11h 31m
Length of Day
10h 42m
New Moon, 0% of the Moon is Illuminated
Nov 25
New Moon
Dec 2
First Quarter
Dec 10
Full
Dec 17
Last Quarter
Dec 24
New

Hourly Weather History & Observations

Time (CST) Temp. Heat Index Dew Point Humidity Pressure Visibility Wind Dir Wind Speed Gust Speed Precip Events Conditions
12:53 AM 66.9 °F - 60.1 °F 79% 30.11 in 10.0 mi SE 5.8 mph - N/A   Clear
2:53 AM 64.0 °F - 60.1 °F 87% 30.07 in 10.0 mi SSE 3.5 mph - N/A   Clear
4:53 AM 64.9 °F - 61.0 °F 87% 30.04 in 10.0 mi SSE 4.6 mph - N/A   Mostly Cloudy
5:53 AM 64.9 °F - 61.0 °F 87% 30.04 in 10.0 mi SE 5.8 mph - N/A   Clear
6:53 AM 66.0 °F - 62.1 °F 87% 30.05 in 10.0 mi SE 6.9 mph - N/A   Clear
7:53 AM 71.1 °F - 64.0 °F 78% 30.05 in 10.0 mi SE 6.9 mph - N/A   Clear
8:53 AM 77.0 °F - 64.0 °F 64% 30.04 in 10.0 mi SE 15.0 mph 20.7 mph N/A   Clear
9:53 AM 80.1 °F 81.5 °F 63.0 °F 56% 30.04 in 10.0 mi SE 17.3 mph 25.3 mph N/A   Clear
10:53 AM 80.1 °F 81.9 °F 64.9 °F 60% 30.02 in 10.0 mi SE 18.4 mph 24.2 mph N/A   Mostly Cloudy
11:53 AM 81.0 °F 83.0 °F 66.0 °F 60% 29.99 in 10.0 mi SE 21.9 mph 28.8 mph N/A   Mostly Cloudy
12:53 PM 82.0 °F 84.1 °F 66.0 °F 58% 29.95 in 10.0 mi SE 20.7 mph 28.8 mph N/A   Mostly Cloudy
1:53 PM 82.0 °F 84.5 °F 66.9 °F 60% 29.91 in 9.0 mi SE 21.9 mph 28.8 mph N/A   Scattered Clouds
3:53 PM 81.0 °F 83.3 °F 66.9 °F 62% 29.88 in 9.0 mi SE 18.4 mph 28.8 mph N/A   Scattered Clouds
4:53 PM 79.0 °F - 68.0 °F 69% 29.87 in 10.0 mi SSE 19.6 mph 24.2 mph N/A   Partly Cloudy
5:53 PM 77.0 °F - 69.1 °F 76% 29.87 in 10.0 mi SE 15.0 mph 20.7 mph N/A   Scattered Clouds
6:53 PM 75.9 °F - 68.0 °F 76% 29.88 in 10.0 mi SSE 11.5 mph - N/A   Mostly Cloudy
7:53 PM 75.9 °F - 69.1 °F 79% 29.88 in 10.0 mi SE 13.8 mph - N/A   Scattered Clouds
8:53 PM 75.0 °F - 69.1 °F 82% 29.88 in 10.0 mi SSE 15.0 mph - N/A   Clear
9:53 PM 75.0 °F - 69.1 °F 82% 29.88 in 10.0 mi SSE 13.8 mph - N/A   Clear
10:53 PM 75.0 °F - 69.1 °F 82% 29.87 in 9.0 mi SSE 12.7 mph - N/A   Clear